[keps] orb12292.2l.amsat
Ray Hoad
ray.hoad at mypbmail.com
Thu Oct 18 20:32:40 PDT 2012
SB KEPS @ AMSAT $ORB12292.N
2Line Orbital Elements 12292.AMSAT
HR AMSAT ORBITAL ELEMENTS FOR AMATEUR SATELLITES IN NASA FORMAT
FROM WA5QGD FORT WORTH,TX October 18, 2012
BID: ORB12292.N
DECODE 2-LINE ELSETS WITH THE FOLLOWING KEY:
1 AAAAAU 00 0 0 BBBBB.BBBBBBBB .CCCCCCCC 00000-0 00000-0 0 DDDZ
2 AAAAA EEE.EEEE FFF.FFFF GGGGGGG HHH.HHHH III.IIII JJ.JJJJJJJJKKKKKZ
KEY: A-CATALOGNUM B-EPOCHTIME C-DECAY D-ELSETNUM E-INCLINATION F-RAAN
G-ECCENTRICITY H-ARGPERIGEE I-MNANOM J-MNMOTION K-ORBITNUM Z-CHECKSUM
TO ALL RADIO AMATEURS BT
AO-07
1 07530U 74089B 12292.44479624 -.00000027 00000-0 10000-3 0 5089
2 07530 101.4124 284.9381 0012138 041.3946 318.8052 12.53592097735495
FO-29
1 24278U 96046B 12292.46042562 .00000034 00000-0 68090-4 0 9593
2 24278 098.5871 016.9948 0351243 070.2321 293.6338 13.52990358798624
SO-33
1 25509U 98061B 12292.51922542 .00000756 00000-0 13599-3 0 3465
2 25509 031.4338 355.7047 0352069 202.5779 155.8986 14.28846504730300
RS-22
1 27939U 03042A 12292.76541013 .00000709 00000-0 14320-3 0 8259
2 27939 097.8030 127.2070 0012327 231.0550 128.9577 14.64173189483962
VO-52
1 28650U 05017B 12292.58752208 .00001984 00000-0 24732-3 0 2375
2 28650 097.5872 317.4640 0026417 358.4118 001.7010 14.83272924403262
HO-68
1 36122U 09072B 12292.87937445 -.00000044 00000-0 00000 0 0 9308
2 36122 100.3464 349.6488 0007434 183.0299 177.0767 13.16298950136667
UO-11
1 14781U 84021B 12291.71938959 .00000966 00000-0 13265-3 0 00017
2 14781 097.9388 350.0790 0008572 005.0505 355.0792 14.80604236517051
AO-16
1 20439U 90005D 12292.89504124 .00000172 00000-0 79784-4 0 5840
2 20439 098.4408 232.8708 0011075 148.4791 211.7068 14.32096557187701
LO-19
1 20442U 90005G 12292.89937751 .00000203 00000-0 90811-4 0 5142
2 20442 098.4092 235.4569 0012449 141.0822 219.1258 14.32312508187898
AO-27
1 22825U 93061C 12291.87801994 .00000066 00000-0 43077-4 0 02225
2 22825 098.5859 232.8485 0007609 280.7582 079.2763 14.29496462994004
IO-26
1 22826U 93061D 12292.55510408 .00000161 00000-0 79543-4 0 9757
2 22826 098.5805 233.8549 0008040 273.1011 086.9248 14.29774125994234
GO-32
1 25397U 98043D 12292.91463173 -.00000005 00000-0 15890-4 0 9016
2 25397 098.3785 265.6317 0000450 329.6611 030.4573 14.23298958741628
NO-44
1 26931U 01043C 12291.73273437 .00000243 00000-0 12667-3 0 01648
2 26931 067.0512 164.4912 0005763 251.3138 108.7313 14.29843869576763
SO-50
1 27607U 02058C 12292.30266164 .00000892 00000-0 15543-3 0 8923
2 27607 064.5565 280.3412 0074783 223.6382 135.8771 14.72575677528097
CO-55
1 27844U 03031E 12291.57563450 .00000260 00000-0 13998-3 0 4864
2 27844 098.7049 298.1879 0008932 227.3622 132.6807 14.21090932482275
CO-57
1 27848U 03031J 12292.51648137 .00000234 00000-0 12864-3 0 4366
2 27848 098.7119 298.5051 0008801 230.2705 129.7692 14.20834544482344
AO-51
1 28375U 04025K 12292.47139307 .00000297 00000-0 10133-3 0 3911
2 28375 098.1637 252.1193 0084610 027.9535 332.6159 14.41005839436528
CP3
1 31129U 07012N 12291.57794687 .00000975 00000-0 22940-3 0 02910
2 31129 097.8875 292.1821 0102076 102.2247 259.0397 14.53254550291754
CO-65
1 32785U 08021C 12292.84321215 .00001376 00000-0 17430-3 0 4459
2 32785 097.7848 350.8904 0014922 023.4202 336.7674 14.83282681242096
PRISM
1 33493U 09002B 12292.83794885 .00003757 00000-0 45104-3 0 1745
2 33493 098.1878 076.5280 0017703 255.1413 104.7875 14.84541632202095
SOHLA-1
1 33496U 09002E 12291.89767537 .00000675 00000-0 12067-3 0 08742
2 33496 098.1153 042.9000 0007149 019.2312 340.9155 14.70077251200270
SO-67
1 35870U 09049F 12292.86406407 .00006076 00000-0 24730-3 0 4304
2 35870 097.2205 324.2547 0003878 088.3259 032.6491 15.24850509171450
TISAT-1
1 36799U 10035E 12292.88499402 .00002609 00000-0 33191-3 0 4489
2 36799 098.0545 010.0934 0015868 129.0389 231.2263 14.82392228122818
STUDSAT
1 36801U 10035G 12291.85232770 .00007630 00000-0 88755-3 0 05208
2 36801 098.0613 010.3814 0013073 117.8708 242.3834 14.85535917122728
FO-69
1 37227U 0 12287.34946499 .00000675 00000-0 10296-3 0 03105
2 37227 071.9694 051.1893 0015455 102.7974 257.4922 14.77210399053547
FO-70
1 37380U 0 12287.30727043 .00000637 00000-0 98136-4 0 03123
2 37380 071.9727 051.9923 0015930 099.5353 260.7616 14.76958422053427
ALMASAT-1
1 38078U 12006B 12292.79849848 .00022900 00000-0 63576-3 0 6628
2 38078 069.4788 036.4014 0735977 093.4588 275.0945 14.14040952 34990
XATCOBEO
1 38082U 12006F 12292.71993569 .00054733 00000-0 13060-2 0 6277
2 38082 069.4856 030.4420 0685760 090.1983 277.7689 14.27732273 35143
NOAA-10
1 16969U 86073A 12291.74591816 .00000208 00000-0 10191-3 0 01011
2 16969 098.5719 318.5650 0011404 234.2083 125.8032 14.27585491357352
NOAA-11
1 19531U 88089A 12291.75958918 -.00000051 00000-0 -37540-5 0 00947
2 19531 098.7277 014.3092 0010320 233.4054 126.6170 14.14985132241847
NOAA-12
1 21263U 91032A 12291.94996341 .00000092 00000-0 57790-4 0 05909
2 21263 098.7224 313.0007 0013393 201.3512 158.7110 14.25524025114048
MET-3/5
1 21655U 91056A 12291.83715914 -.00000316 00000-0 -85227-3 0 5291
2 21655 082.5563 065.5285 0013382 020.9620 339.2048 13.17045024 18035
MET-2/21
1 22782U 93055A 12291.57947559 .00000117 00000-0 92272-4 0 05574
2 22782 082.5457 295.4035 0022693 165.4850 194.6968 13.83690158966090
OKEAN-4
1 23317U 94066A 12291.95956522 .00001708 00000-0 20177-3 0 00716
2 23317 082.5363 276.4029 0019945 311.1817 048.7677 14.84014835973012
NOAA-14
1 23455U 94089A 12291.96898983 .00000087 00000-0 69003-4 0 00745
2 23455 098.8227 013.8875 0009220 332.3858 027.6821 14.13876093918145
NOAA-15
1 25338U 98030A 12291.78374958 .00000278 00000-0 13725-3 0 04428
2 25338 098.7023 277.6155 0011483 109.4479 250.7920 14.25132205750312
RESURS
1 25394U 98043A 12291.98864218 .00000108 00000-0 64693-4 0 02239
2 25394 098.3323 273.8395 0000482 213.2203 146.8942 14.24302194741889
FENGYUN1
1 25730U 99025A 12292.92630507 .00000838 00000-0 50070-3 0 7206
2 25730 098.8537 249.8265 0021396 008.7818 351.3715 14.09785140692043
OKEAN-0
1 25860U 99039A 12291.97167112 .00000629 00000-0 10244-3 0 07663
2 25860 097.9531 252.2198 0000826 103.9454 256.1847 14.74341570712669
NOAA-16
1 26536U 00055A 12291.55955453 .00000058 00000-0 55671-4 0 09348
2 26536 099.0811 335.4903 0011358 098.9270 261.3203 14.12792043622316
NOAA-17
1 27453U 02032A 12291.73487756 .00000348 00000-0 16768-3 0 08760
2 27453 098.3286 312.5365 0012085 152.8994 207.2810 14.24495643536206
NOAA-18
1 28654U 05018A 12291.68194299 .00000056 00000-0 55635-4 0 03579
2 28654 099.0623 250.8855 0014280 166.9716 193.1827 14.11713403381840
NOAA-19
1 33591U 09005A 12291.71740423 .00000023 00000-0 37085-4 0 05457
2 33591 098.8747 230.0424 0014731 037.7847 322.4351 14.11400589190297
HUBBLE
1 20580U 90037B 12291.06346532 .00002576 00000-0 17502-3 0 908
2 20580 028.4693 065.7616 0002980 273.8185 086.2044 15.02902827 33076
ISS
1 25544U 98067A 12292.89012777 .00005528 00000-0 10180-3 0 4883
2 25544 051.6475 226.8342 0016982 183.8981 282.3110 15.50730892797236
CO-58
1 28895U 05043F 12292.65845158 .00000965 00000-0 20615-3 0 3050
2 28895 097.8952 153.3905 0018643 120.9798 239.3270 14.60793747371687
FALCON
1 30776U 07006E 12291.93857158 .00004965 00000-0 31425-3 0 04792
2 30776 035.4328 246.5887 0002424 336.1583 023.9037 15.08504499308797
MAST
1 31126U 07012K 12291.97291231 .00000627 00000-0 14925-3 0 05885
2 31126 097.8753 295.9073 0094848 087.9136 273.2927 14.54289129292118
CAPE1
1 31130U 07012P 12291.00834100 .00001156 00000-0 27091-3 0 05956
2 31130 097.8879 291.3290 0102446 104.6260 256.6319 14.53109575291464
COMPASS
1 32787U 08021E 12292.84567883 .00002379 00000-0 28804-3 0 4400
2 32787 097.7862 351.3835 0015653 020.1712 340.0096 14.84490194242159
AAUSAT2
1 32788U 08021F 12292.85436023 .00003018 00000-0 36068-3 0 4315
2 32788 097.7854 351.8464 0014960 022.6224 337.5656 14.84855687242187
DO-64
1 32789U 08021G 12292.22651187 .00005247 00000-0 59519-3 0 4487
2 32789 097.8015 353.7586 0014815 017.7802 342.3871 14.86688412242152
CO-66
1 32791U 08021J 12292.81977483 .00002353 00000-0 28960-3 0 4295
2 32791 097.7847 350.9946 0015586 021.8592 338.3256 14.83821225242075
RS-30
1 32953U 08025A 12292.83902328 .00000010 00000-0 00000 0 0 2430
2 32953 082.5027 218.2379 0020247 040.0676 320.1894 12.43028733199928
PHARMSAT
1 35002U 09028B 12226.86484473 .07728342 73476-5 57159-3 0 789
2 35002 040.4341 050.6671 0012079 300.9773 059.0492 16.39309245183554
METEOR-M
1 35865U 09049A 12292.78901014 -.00000006 00000-0 17035-4 0 8812
2 35865 098.6398 344.7018 0003368 059.3072 300.8431 14.21871501160168
RS-38
1 35869U 09049E 12292.86182784 .00000045 00000-0 39642-4 0 8652
2 35869 098.6359 344.7483 0005577 058.4699 301.7014 14.22092577160193
JUGNU
1 37839U 11058B 12291.49169616 .00000620 00000-0 19019-3 0 2480
2 37839 019.9597 337.2787 0019467 128.8967 231.3170 14.12091639 52557
SRMSAT
1 37841U 11058D 12292.42042611 .00000264 00000-0 00000 0 0 2527
2 37841 019.9693 338.9479 0011538 104.6624 255.5119 14.10170623 52602
RAX-2
1 37853U 11061D 12292.52316799 .00004762 00000-0 37660-3 0 3160
2 37853 101.7038 028.9041 0243516 358.9253 001.1392 14.81096615 52642
AUBIESAT
1 37854U 11061E 12291.90236505 .00005681 00000-0 44208-3 0 03187
2 37854 101.7069 028.4251 0242955 000.0121 000.1022 14.81565998052554
HRBE
1 37855U 11061F 12292.53781805 .00004917 00000-0 38341-3 0 3122
2 37855 101.7076 029.2583 0244754 358.2760 001.7566 14.81373070 52644
RS-39
1 38051U 11062C 12292.88731905 .00015437 00000-0 59317-3 0 8070
2 38051 051.6350 289.4996 0013896 117.5597 316.3476 15.26522601 40855
E-STAR
1 38079U 12006C 12292.67804988 .00043974 00000-0 10664-2 0 5804
2 38079 069.4817 031.7313 0700618 091.0267 277.1166 14.24271054 35108
GOLIAT
1 38085U 12006J 12292.69237480 .00042268 00000-0 10219-2 0 5474
2 38085 069.4816 032.4373 0706742 091.4736 276.7389 14.23036819 35083
HORYU-2
1 38340U 12025D 12292.83728826 .00002085 00000-0 35352-3 0 1974
2 38340 098.1868 232.9216 0011885 301.7550 058.2594 14.70283572 22645
RS-40
1 38736U 12041D 12291.60566656 .00000010 00000-0 00000-0 0 00857
2 38736 082.4767 306.3828 0019692 134.3444 225.9261 12.42646793010117
PROITERES
1 38756U 12047B 12292.73499540 .00000932 00000-0 15005-3 0 1462
2 38756 098.2820 359.0544 0013217 150.3032 209.8929 14.73921250 5826
AENEAS
1 38760U 0 12292.59224759 .00007974 00000-0 72768-3 0 00444
2 38760 064.6712 294.3785 0218746 279.7740 196.9387 14.79209769005118
CSSWE-D
1 38761U 0 12292.59396971 .00005180 00000-0 47685-3 0 00392
2 38761 064.6728 294.3543 0219595 279.7647 220.2297 14.79250717005117
CXBN-E
1 38762U 0 12292.52621990 .00005711 00000-0 52324-3 0 00383
2 38762 064.6742 294.5535 0219472 279.5853 225.3092 14.79313262005101
OBJECT F
1 38763U 0 12292.58915884 .00004849 00000-0 44643-3 0 00362
2 38763 064.6728 294.3579 0219860 279.8294 202.0698 14.79303387004958
CINEMA-G
1 38764U 0 12292.52560757 .00005180 00000-0 47594-3 0 00369
2 38764 064.6712 294.5467 0219593 279.8509 224.9420 14.79320852005102
CP5
1 38765U 0 12292.58733009 .00007628 00000-0 69377-3 0 00371
2 38765 064.6732 294.3416 0218581 279.7702 197.9660 14.79394567005117
RAIKO
1 38852U 98067CN 12292.86260360 .00041198 00000-0 66887-3 0 131
2 38852 051.6467 226.8659 0018444 171.1212 189.0108 15.52123295 2140
FITSAT 1
1 38853U 98067CP 12292.86186995 .00049816 00000-0 80346-3 0 156
2 38853 051.6526 226.8697 0014395 179.4079 180.6934 15.52297689 2190
TechEdSat
1 38854U 98067CQ 12292.92449247 .00062912 00000-0 99719-3 0 152
2 38854 051.6473 226.5338 0015030 181.5682 178.5289 15.52669418 2206
F 1
1 38855U 98067CR 12292.86048178 .00061081 00000-0 97070-3 0 169
2 38855 051.6488 226.8593 0015441 181.9586 178.1351 15.52602573 2083
WeWish
1 38856U 98067CS 12292.85810721 .00086786 00000-0 13426-2 0 194
2 38856 051.6468 226.8346 0016425 170.6382 189.4931 15.53175866 2080
/EX
More information about the Keps
mailing list